2022/11/24 11:50:00, 0.0,12.8
2022/11/24 12:00:00, 0.0,12.6
2022/11/24 12:10:00, 0.0,13.1
2022/11/24 12:20:00, 0.1,12.7
2022/11/24 12:30:00, 0.0,12.2
2022/11/24 12:40:00, 0.0,12.1
2022/11/24 12:50:00, 0.0,11.8
2022/11/24 13:00:00, 0.0,12.2
2022/11/24 13:10:00, 0.1,12.1
2022/11/24 13:20:00, 0.0,12.4
2022/11/24 13:30:00, 0.0,12.4
2022/11/24 13:40:00, 0.1,12.6
2022/11/24 13:50:00, 0.2,12.4
2022/11/24 14:00:00, 0.1,12.1
2022/11/24 14:10:00, 0.2,11.9
2022/11/24 14:20:00, 0.2,11.7
2022/11/24 14:30:00, 0.1,11.5
2022/11/24 14:50:00, 0.0,11.8
2022/11/24 15:00:00, 0.0,11.7
2022/11/24 15:10:00, 0.0,11.7
2022/11/24 15:20:00, 0.0,11.8
2022/11/24 15:30:00, 0.1,11.4
2022/11/24 15:40:00, 0.1,11.2
2022/11/24 15:50:00, 0.1,11.1
2022/11/24 16:00:00, 0.2,11.1
2022/11/24 16:10:00, 0.2,11.0
2022/11/24 16:20:00, 0.3,10.7
2022/11/24 16:30:00, 0.3,10.6
2022/11/24 16:40:00, 0.2,10.5
2022/11/24 16:50:00, 0.2,10.2
2022/11/24 17:00:00, 0.2, 9.9
2022/11/24 17:10:00, 0.1,10.0
2022/11/24 17:20:00, 0.1, 9.6
2022/11/24 17:30:00, 0.2, 9.6
2022/11/24 17:40:00, 0.3, 9.9
2022/11/24 17:50:00, 0.3, 9.6
2022/11/24 18:00:00, 0.2, 9.5
2022/11/24 18:10:00, 0.2, 9.6
2022/11/24 18:20:00, 0.1, 9.4
2022/11/24 18:30:00, 0.1, 9.4
2022/11/24 18:40:00, 0.1, 9.4
2022/11/24 18:50:00, 0.0, 9.2
2022/11/24 19:00:00, 0.2, 9.3
2022/11/24 19:10:00, 0.0, 9.1
2022/11/24 19:20:00, 0.0, 8.9
2022/11/24 19:30:00, 0.0, 8.6
2022/11/24 19:40:00, 0.0, 8.5
2022/11/24 19:50:00, 0.0, 8.5
2022/11/24 20:00:00, 0.0, 8.6
2022/11/24 20:10:00, 0.0, 8.7
2022/11/24 20:20:00, 0.0, 8.7
2022/11/24 20:30:00, 0.0, 8.5
2022/11/24 20:40:00, 0.0, 8.8
2022/11/24 20:50:00, 0.0, 8.4
2022/11/24 21:00:00, 0.0, 8.6
2022/11/24 21:10:00, 0.0, 8.7
2022/11/24 21:20:00, 0.0, 8.6
2022/11/24 21:30:00, 0.0, 8.6
2022/11/24 21:40:00, 0.0, 8.5
2022/11/24 21:50:00, 0.0, 8.3
2022/11/24 22:00:00, 0.0, 8.4
2022/11/24 22:10:00, 0.0, 8.2
2022/11/24 22:20:00, 0.0, 8.0
2022/11/24 22:30:00, 0.0, 7.7
2022/11/24 22:40:00, 0.0, 7.4
2022/11/24 22:50:00, 0.0, 7.1
2022/11/24 23:00:00, 0.0, 7.3
2022/11/24 23:10:00, 0.0, 7.3
2022/11/24 23:20:00, 0.0, 7.4
2022/11/24 23:30:00, 0.0, 7.4
2022/11/24 23:40:00, 0.0, 7.7
2022/11/24 23:50:00, 0.0, 7.5
